Regional Weather Roundup
Issued by NWS

Home | Current Version | Previous Version | Graphics & Text | Print | Product List | Glossary On
Versions: 1 2 3 4 5 6 7 8 9 10 11 12 13 14 15 16 17 18 19 20 21 22 23 24 25 26 27 28 29 30 31 32 33 34 35 36 37 38 39 40 41 42 43 44 45 46 47 48 49 50
000
ASUS45 KTFX 300604
RWRMT
MONTANA HOURLY WEATHER ROUNDUP
NATIONAL WEATHER SERVICE GREAT FALLS MT
1204 AM MDT THU OCT 30 2014

NOTE: "FAIR" INDICATES FEW OR NO CLOUDS BELOW 12000 FEET WITH NO
SIGNIFICANT WEATHER AND/OR OBSTRUCTIONS TO VISIBILITY.

* THESE STATIONS ARE NOT UNDER NWS QUALITY CONTROL. THEY DO NOT
   REPORT WEATHER SUCH AS PRECIPITATION OR FOG.

MTZ001>007-043-300700-
WEST OF THE DIVIDE
CITY           SKY/WX    TMP DP  RH WIND       PRES   REMARKS
KALISPELL      FOG       37  37 100 CALM      30.24S VSB 1 1/4
MISSOULA       MOCLDY    37  36  96 N3        30.27R
BUTTE          PTCLDY    28  27  96 CALM      30.28S
MULLAN PASS    FOG       36  36 100 S6        30.23S VSB M1/4 WCI  31
* ANACONDA     PTCLDY    34  28  79 S5         N/A   WCI  29
* DEER LODGE   CLEAR     32  28  85 W5         N/A   WCI  27
* ESSEX        N/A       41  40  96 N/A        N/A
* HAMILTON APT PTCLDY    39  34  82 S6         N/A   WCI  35
* LIBBY APT    PTCLDY    43  39  86 N/A        N/A
* LINCOLN      N/A       35  32  89 NE2        N/A
* LOOKOUT PASS N/A       40  40 100 S8         N/A   WCI  35
* POLSON       N/A       38  38 100 N/A        N/A
* RONAN APT    CLEAR     36  34  92 N/A        N/A
* SEELEY LAKE  N/A       30  29  96 NE1        N/A
* THOMP F APT  CLEAR     39  25  57 N5         N/A   WCI  35
* YAAK HILL    N/A       45  42  89 N/A        N/A
$$

MTZ008-052>055-300700-
SOUTHWEST MONTANA
CITY           SKY/WX    TMP DP  RH WIND       PRES   REMARKS
BOZEMAN        CLEAR     28  25  89 S6        30.26S WCI  21
DILLON         MOCLDY    32  27  82 SW6       30.26S WCI  26
W YELLOWSTONE  PTCLDY    27  25  92 CALM      30.31S
* ENNIS APT    PTCLDY    39  25  57 N/A        N/A
* THREE FORKS  CLEAR     34  34 100 N/A        N/A
* BOULDER HILL N/A       38  23  55 S3G10      N/A
* MONIDA PASS  N/A       31  23  72 SW3        N/A
* RAYNOLDS PAS N/A       31  12  45 SE6        N/A   WCI  25
* WHITEHALL    N/A       34  25  70 W4         N/A
* WISE RIVER   N/A       32  28  85 SW3        N/A
$$

MTZ009>010-012-014-046-048-049-054-300700-
EAST SLOPES AND CENTRAL MONTANA
CITY           SKY/WX    TMP DP  RH WIND       PRES   REMARKS
CUT BANK       CLEAR     39  34  82 NW12      30.17R WCI  32
GREAT FALLS    CLEAR     43  34  71 SW12      30.18S
HELENA         FAIR      39  34  82 CALM      30.24S
MALMSTROM AFB  CLEAR     37  34  89 SW12      30.20S WCI  29
* CONRAD       CLEAR     30  27  89 N/A        N/A
* EAST GLACIER N/A       42  32  68 W16G22     N/A
* MONARCH      N/A       41  23  49 SW12       N/A
* SAINT MARY   N/A       44  34  68 S7G19      N/A
* SWEET GRASS  N/A       41  32  70 W12G17     N/A
$$

MTZ011-013-016-021-035-040-045-047-050-051-300700-
NORTH CENTRAL MONTANA
CITY           SKY/WX    TMP DP  RH WIND       PRES   REMARKS
HAVRE          CLEAR     37  32  82 S5        30.15R WCI  33
LEWISTOWN      MOCLDY    39  30  70 SW10      30.20R WCI  32
* N BAR RANCH  CLOUDY    43  30  60 N6        30.21R
* CHESTER      N/A       39  32  76 N2         N/A
* DENTON       N/A       40  31  70 S7         N/A   WCI  35
* JUDITH GAP   N/A       43  27  53 W6         N/A
* LOMA         N/A       43  32  65 W6         N/A
$$

MTZ017>020-022>027-061-062-300700-
NORTHEAST MONTANA
CITY           SKY/WX    TMP DP  RH WIND       PRES   REMARKS
GLASGOW        CLEAR     36  30  79 NE5       30.14R WCI  32
GLENDIVE       CLEAR     37  32  82 W10       30.13R WCI  30
JORDAN         CLEAR     34  30  85 NW8       30.14R WCI  27
SIDNEY         CLEAR     34  28  79 NW6       30.12R WCI  29
WOLF POINT     LGT SNOW  37  32  82 N8        30.14R WCI  31
* BEAVER HILL  N/A       37  32  82 W8         N/A   WCI  31
* CIRCLE       N/A       38  33  82 W4         N/A
* LINDSAY DVD  N/A       32  30  92 W4         N/A
* NAVAJO       N/A       36  33  89 VRB9       N/A   WCI  29
* PLENTYWOOD A N/A       29 N/A N/A N/A        N/A
* POPLAR APT   N/A       39  34  82 N/A        N/A
* SACO         N/A       31  29  92 NE8        N/A   WCI  24
$$

MTZ028>042-056>058-300700-
SOUTHCENTRAL AND SOUTHEAST MONTANA
CITY           SKY/WX    TMP DP  RH WIND       PRES   REMARKS
BAKER          CLEAR     39  34  82 W13       30.10R WCI  31
BILLINGS       MOCLDY    46  30  54 W12       30.20R
LIVINGSTON     CLEAR     36  27  70 VRB5      30.25R WCI  32
MILES CITY     FAIR      37  28  70 NW9       30.13R WCI  30
* FORSYTH APT  CLEAR     46  30  54 SW6        N/A
* LAUREL APT   CLEAR     46  23  40 N/A        N/A
* ROUNDUP APT  CLEAR     43  27  53 N/A        N/A
* ALZADA       N/A       37  30  76 W4         N/A
* LAME DEER    N/A       47  30  52 NW7        N/A
* REED POINT   N/A       36  27  70 NE2        N/A
* ROSCOE HILL  N/A       40  15  36 E9         N/A   WCI  34
$$

REGIONAL REPORTS...DAKOTAS
CITY           SKY/WX    TMP DP  RH WIND       PRES   REMARKS
WILLISTON      CLEAR     37  32  82 NW10      30.08R WCI  30
DICKINSON      CLEAR     37  34  89 NW10      30.02R WCI  30
BEACH          N/A       36  34  92 NW7       30.09R WCI  30
CROSBY         FAIR      32  32 100 N13       30.09R WCI  22
TIOGA          CLEAR     34  34 100 N10       30.07R WCI  26
BISMARCK       CLEAR     39  39 100 W6        29.97S WCI  35
GRAND FORKS    CLOUDY    37  32  82 SE9       29.98S WCI  30
FARGO          CLOUDY    39  34  82 SE10      29.98F WCI  32
BUFFALO SD     CLEAR     37  32  82 W12       30.01R WCI  29
RAPID CITY     PTCLDY    43  32  65 NW13      30.11R
$$

REGIONAL REPORTS...WYOMING/IDAHO/WASHINGTON
CITY           SKY/WX    TMP DP  RH WIND       PRES   REMARKS
GILLETTE       CLEAR     43  27  53 W13       30.19R
SHERIDAN       MOCLDY    39  27  62 SW8       30.21R WCI  33
CODY           PTCLDY    37  25  62 CALM      30.24R
YELLOWSTONE LA PTCLDY    27  23  85 CALM      30.35R
SALMON         MOCLDY    37  32  82 N/A       30.25S
MULLAN PASS    FOG       36  36 100 S6        30.23S VSB M1/4 WCI  31
SAND POINT     MOCLDY    43  43 100 N6        30.22S
SPOKANE        FOG       46  46 100 NE8       30.18S

$$




USA.gov is the U.S. government's official web portal to all federal, state and local government web resources and services.